| time (UTC) | temp F | wind direction | speed MPH | gust MPH | rain 1hr in | rain 24hr in | rain mn in | humidity % | barometer mb |
| 20260507114029 | 68 | 35 | 8.0 | 0.0 | 0.00 | 0.00 | 0.00 | 53 | 1013.6 |
| 20260507113529 | 68 | 58 | 8.0 | 0.0 | 0.00 | 0.00 | 0.00 | 56 | 1013.6 |
| 20260507113029 | 68 | 43 | 7.0 | 0.0 | 0.00 | 0.00 | 0.00 | 57 | 1013.6 |
| 20260507112528 | 68 | 39 | 5.0 | 0.0 | 0.00 | 0.00 | 0.00 | 57 | 1013.5 |
| 20260507112028 | 67 | 25 | 6.0 | 0.0 | 0.00 | 0.00 | 0.00 | 60 | 1013.6 |
| 20260507111528 | 67 | 21 | 7.0 | 0.0 | 0.00 | 0.00 | 0.00 | 60 | 1013.7 |
| 20260507111107 | 67 | 347 | 4.0 | 0.0 | 0.00 | 0.00 | 0.00 | 58 | 1013.7 |
| 20260507111028 | 67 | 347 | 4.0 | 0.0 | 0.00 | 0.00 | 0.00 | 58 | 1013.7 |
| 20260507110528 | 68 | 25 | 11.0 | 0.0 | 0.00 | 0.00 | 0.00 | 56 | 1013.7 |
| 20260507110027 | 68 | 4 | 4.0 | 0.0 | 0.00 | 0.00 | 0.00 | 55 | 1013.7 |
| 20260507105527 | 68 | 348 | 4.0 | 0.0 | 0.00 | 0.00 | 0.00 | 57 | 1013.8 |
| 20260507105111 | 68 | 13 | 0.0 | 0.0 | 0.00 | 0.00 | 0.00 | 60 | 1013.7 |
| 20260507105027 | 68 | 13 | 0.0 | 0.0 | 0.00 | 0.00 | 0.00 | 60 | 1013.7 |
| 20260507104527 | 68 | 333 | 8.0 | 0.0 | 0.00 | 0.00 | 0.00 | 60 | 1013.7 |
| 20260507104026 | 68 | 316 | 11.0 | 0.0 | 0.00 | 0.00 | 0.00 | 56 | 1013.7 |
| 20260507103526 | 69 | 52 | 3.0 | 0.0 | 0.00 | 0.00 | 0.00 | 57 | 1013.7 |
| 20260507103026 | 69 | 341 | 5.0 | 0.0 | 0.00 | 0.00 | 0.00 | 57 | 1013.7 |
| 20260507102526 | 69 | 316 | 6.0 | 0.0 | 0.00 | 0.00 | 0.00 | 55 | 1013.7 |
| 20260507102025 | 70 | 349 | 8.0 | 0.0 | 0.00 | 0.00 | 0.00 | 54 | 1013.7 |
| 20260507101525 | 70 | 354 | 2.0 | 0.0 | 0.00 | 0.00 | 0.00 | 53 | 1013.7 |
| 20260507101025 | 70 | 338 | 4.0 | 0.0 | 0.00 | 0.00 | 0.00 | 53 | 1013.7 |
| 20260507100525 | 70 | 343 | 7.0 | 0.0 | 0.00 | 0.00 | 0.00 | 52 | 1013.8 |
| 20260507100025 | 69 | 27 | 5.0 | 0.0 | 0.00 | 0.00 | 0.00 | 52 | 1013.8 |
| 20260507095524 | 70 | 31 | 3.0 | 0.0 | 0.00 | 0.00 | 0.00 | 53 | 1013.8 |
| 20260507095024 | 69 | 324 | 9.0 | 0.0 | 0.00 | 0.00 | 0.00 | 55 | 1013.8 |
| 20260507094524 | 69 | 328 | 3.0 | 0.0 | 0.00 | 0.00 | 0.00 | 55 | 1013.8 |
| 20260507094024 | 69 | 342 | 6.0 | 0.0 | 0.00 | 0.00 | 0.00 | 54 | 1013.7 |
| 20260507093523 | 69 | 344 | 0.0 | 0.0 | 0.00 | 0.00 | 0.00 | 54 | 1013.9 |
| 20260507093055 | 69 | 332 | 5.0 | 0.0 | 0.00 | 0.00 | 0.00 | 54 | 1013.7 |
| 20260507093023 | 69 | 332 | 5.0 | 0.0 | 0.00 | 0.00 | 0.00 | 54 | 1013.7 |
| 20260507092523 | 69 | 308 | 5.0 | 0.0 | 0.00 | 0.00 | 0.00 | 55 | 1013.7 |
| 20260507092023 | 69 | 317 | 0.0 | 0.0 | 0.00 | 0.00 | 0.00 | 56 | 1013.7 |
| 20260507091522 | 69 | 321 | 5.0 | 0.0 | 0.00 | 0.00 | 0.00 | 58 | 1013.7 |
| 20260507091022 | 68 | 16 | 0.0 | 0.0 | 0.00 | 0.00 | 0.00 | 59 | 1013.7 |
| 20260507090522 | 68 | 354 | 2.0 | 0.0 | 0.00 | 0.00 | 0.00 | 59 | 1013.7 |
| 20260507090022 | 68 | 4 | 0.0 | 0.0 | 0.00 | 0.00 | 0.00 | 59 | 1013.7 |
| 20260507085522 | 67 | 354 | 3.0 | 0.0 | 0.00 | 0.00 | 0.00 | 60 | 1013.7 |
| 20260507085021 | 67 | 359 | 5.0 | 0.0 | 0.00 | 0.00 | 0.00 | 59 | 1013.7 |
| 20260507084521 | 67 | 359 | 10.0 | 0.0 | 0.00 | 0.00 | 0.00 | 61 | 1013.6 |
| 20260507084021 | 68 | 354 | 7.0 | 0.0 | 0.00 | 0.00 | 0.00 | 63 | 1013.6 |
| 20260507083521 | 68 | 354 | 2.0 | 0.0 | 0.00 | 0.00 | 0.00 | 63 | 1013.5 |
| 20260507083020 | 68 | 34 | 8.0 | 0.0 | 0.00 | 0.00 | 0.00 | 63 | 1013.5 |
| 20260507082520 | 69 | 317 | 4.0 | 0.0 | 0.00 | 0.00 | 0.00 | 64 | 1013.4 |
| 20260507082020 | 69 | 9 | 0.0 | 0.0 | 0.00 | 0.00 | 0.00 | 65 | 1013.3 |
| 20260507081519 | 69 | 331 | 0.0 | 0.0 | 0.00 | 0.00 | 0.00 | 64 | 1013.2 |
| 20260507081018 | 70 | 319 | 9.0 | 0.0 | 0.00 | 0.00 | 0.00 | 59 | 1013.2 |
| 20260507080518 | 70 | 266 | 0.0 | 0.0 | 0.00 | 0.00 | 0.00 | 55 | 1013.1 |
| 20260507080017 | 69 | 242 | 0.0 | 0.0 | 0.00 | 0.00 | 0.00 | 55 | 1013.1 |
| 20260507075517 | 69 | 230 | 0.0 | 0.0 | 0.00 | 0.00 | 0.00 | 56 | 1013.1 |
| 20260507075017 | 69 | 243 | 0.0 | 0.0 | 0.00 | 0.00 | 0.00 | 58 | 1013.1 |
| 20260507074517 | 69 | 235 | 0.0 | 0.0 | 0.00 | 0.00 | 0.00 | 59 | 1013.1 |
| 20260507074016 | 69 | 228 | 0.0 | 0.0 | 0.00 | 0.00 | 0.00 | 60 | 1013.1 |
| 20260507073516 | 68 | 229 | 0.0 | 0.0 | 0.00 | 0.00 | 0.00 | 61 | 1013.1 |
| 20260507073016 | 67 | 179 | 0.0 | 0.0 | 0.00 | 0.00 | 0.00 | 61 | 1013.2 |
| 20260507072516 | 67 | 182 | 0.0 | 0.0 | 0.00 | 0.00 | 0.00 | 62 | 1013.1 |
| 20260507072016 | 67 | 180 | 0.0 | 0.0 | 0.00 | 0.00 | 0.00 | 63 | 1013.1 |
| 20260507071515 | 67 | 75 | 0.0 | 0.0 | 0.00 | 0.00 | 0.00 | 64 | 1013.2 |
| 20260507071015 | 67 | 60 | 0.0 | 0.0 | 0.00 | 0.00 | 0.00 | 66 | 1013.2 |
| 20260507070515 | 67 | 60 | 0.0 | 0.0 | 0.00 | 0.00 | 0.00 | 66 | 1013.2 |
| 20260507070015 | 67 | 60 | 0.0 | 0.0 | 0.00 | 0.00 | 0.00 | 67 | 1013.2 |
| 20260507065514 | 66 | 54 | 0.0 | 0.0 | 0.00 | 0.00 | 0.00 | 69 | 1013.1 |
| 20260507065014 | 67 | 54 | 0.0 | 0.0 | 0.00 | 0.00 | 0.00 | 70 | 1013.1 |
| 20260507064514 | 66 | 54 | 0.0 | 0.0 | 0.00 | 0.00 | 0.00 | 71 | 1013.1 |
| 20260507064014 | 65 | 54 | 0.0 | 0.0 | 0.00 | 0.00 | 0.00 | 72 | 1013.1 |
| 20260507063513 | 65 | 54 | 0.0 | 0.0 | 0.00 | 0.00 | 0.00 | 73 | 1013.2 |
| 20260507063013 | 65 | 54 | 0.0 | 0.0 | 0.00 | 0.00 | 0.00 | 74 | 1013.2 |
| 20260507062513 | 65 | 45 | 0.0 | 0.0 | 0.00 | 0.00 | 0.00 | 75 | 1013.1 |
| 20260507062013 | 64 | 43 | 0.0 | 0.0 | 0.00 | 0.00 | 0.00 | 75 | 1013.1 |
| 20260507061513 | 64 | 42 | 0.0 | 0.0 | 0.00 | 0.00 | 0.00 | 75 | 1013.1 |
| 20260507061012 | 63 | 40 | 0.0 | 0.0 | 0.00 | 0.00 | 0.00 | 75 | 1013.1 |
| 20260507060512 | 63 | 40 | 0.0 | 0.0 | 0.00 | 0.00 | 0.00 | 75 | 1013.1 |
| 20260507060012 | 63 | 354 | 0.0 | 0.0 | 0.00 | 0.00 | 0.00 | 75 | 1013.1 |
| 20260507055512 | 62 | 354 | 0.0 | 0.0 | 0.00 | 0.00 | 0.00 | 74 | 1013.0 |
| 20260507055011 | 62 | 338 | 0.0 | 0.0 | 0.00 | 0.00 | 0.00 | 75 | 1013.0 |
| 20260507054511 | 61 | 156 | 0.0 | 0.0 | 0.00 | 0.00 | 0.00 | 75 | 1012.8 |
| 20260507054011 | 61 | 152 | 0.0 | 0.0 | 0.00 | 0.00 | 0.00 | 75 | 1012.8 |
| 20260507053511 | 61 | 131 | 0.0 | 0.0 | 0.00 | 0.00 | 0.00 | 75 | 1012.7 |
| 20260507053011 | 61 | 129 | 0.0 | 0.0 | 0.00 | 0.00 | 0.00 | 75 | 1012.7 |
| 20260507052510 | 61 | 129 | 0.0 | 0.0 | 0.00 | 0.00 | 0.00 | 75 | 1012.7 |
| 20260507052010 | 61 | 129 | 0.0 | 0.0 | 0.00 | 0.00 | 0.00 | 75 | 1012.6 |
| 20260507051510 | 61 | 129 | 0.0 | 0.0 | 0.00 | 0.00 | 0.00 | 75 | 1012.6 |
| 20260507051010 | 61 | 129 | 0.0 | 0.0 | 0.00 | 0.00 | 0.00 | 75 | 1012.7 |
| 20260507050509 | 61 | 129 | 0.0 | 0.0 | 0.00 | 0.00 | 0.00 | 75 | 1012.6 |
| 20260507050009 | 61 | 129 | 0.0 | 0.0 | 0.00 | 0.00 | 0.00 | 75 | 1012.6 |
| 20260507045509 | 62 | 129 | 0.0 | 0.0 | 0.00 | 0.00 | 0.00 | 75 | 1012.5 |
| 20260507045009 | 62 | 129 | 0.0 | 0.0 | 0.00 | 0.00 | 0.00 | 75 | 1012.4 |
| 20260507044508 | 62 | 129 | 0.0 | 0.0 | 0.00 | 0.00 | 0.00 | 75 | 1012.2 |
| 20260507044008 | 62 | 129 | 0.0 | 0.0 | 0.00 | 0.00 | 0.00 | 75 | 1012.2 |
| 20260507043508 | 62 | 129 | 0.0 | 0.0 | 0.00 | 0.00 | 0.00 | 75 | 1012.1 |
| 20260507043008 | 61 | 129 | 0.0 | 0.0 | 0.00 | 0.00 | 0.00 | 75 | 1012.1 |
| 20260507042507 | 61 | 129 | 0.0 | 0.0 | 0.00 | 0.00 | 0.00 | 75 | 1012.1 |
| 20260507042007 | 61 | 129 | 0.0 | 0.0 | 0.00 | 0.00 | 0.00 | 75 | 1012.2 |
| 20260507041507 | 61 | 129 | 0.0 | 0.0 | 0.00 | 0.00 | 0.00 | 75 | 1012.1 |
| 20260507041007 | 61 | 129 | 0.0 | 0.0 | 0.00 | 0.00 | 0.00 | 75 | 1012.1 |
| 20260507040507 | 61 | 124 | 0.0 | 0.0 | 0.00 | 0.00 | 0.00 | 75 | 1012.0 |
| 20260507040006 | 61 | 105 | 0.0 | 0.0 | 0.00 | 0.00 | 0.00 | 75 | 1011.9 |
| 20260507035506 | 61 | 102 | 0.0 | 0.0 | 0.00 | 0.00 | 0.00 | 75 | 1011.9 |
| 20260507035006 | 61 | 101 | 0.0 | 0.0 | 0.00 | 0.00 | 0.00 | 75 | 1011.8 |
| 20260507034506 | 61 | 116 | 0.0 | 0.0 | 0.00 | 0.00 | 0.00 | 75 | 1011.9 |
| 20260507034005 | 61 | 115 | 0.0 | 0.0 | 0.00 | 0.00 | 0.00 | 75 | 1011.9 |
| 20260507033505 | 61 | 115 | 0.0 | 0.0 | 0.00 | 0.00 | 0.00 | 76 | 1011.9 |
| 20260507033005 | 61 | 129 | 0.0 | 0.0 | 0.00 | 0.00 | 0.00 | 76 | 1011.8 |
| 20260507032505 | 61 | 129 | 0.0 | 0.0 | 0.00 | 0.00 | 0.00 | 76 | 1011.8 |
| 20260507032004 | 61 | 129 | 0.0 | 0.0 | 0.00 | 0.00 | 0.00 | 76 | 1011.8 |
| 20260507031736 | 61 | 129 | 0.0 | 0.0 | 0.00 | 0.00 | 0.00 | 76 | 1011.8 |
| 20260507031504 | 61 | 129 | 0.0 | 0.0 | 0.00 | 0.00 | 0.00 | 76 | 1011.8 |
| 20260507031004 | 61 | 130 | 0.0 | 0.0 | 0.00 | 0.00 | 0.00 | 76 | 1011.9 |
| 20260507030504 | 61 | 330 | 0.0 | 0.0 | 0.00 | 0.00 | 0.00 | 76 | 1011.8 |
| 20260507030004 | 62 | 330 | 0.0 | 0.0 | 0.00 | 0.00 | 0.00 | 75 | 1011.8 |
| 20260507025503 | 62 | 330 | 0.0 | 0.0 | 0.00 | 0.00 | 0.00 | 75 | 1011.8 |
| 20260507025003 | 62 | 330 | 0.0 | 0.0 | 0.00 | 0.00 | 0.00 | 75 | 1011.8 |
| 20260507024734 | 61 | 330 | 0.0 | 0.0 | 0.00 | 0.00 | 0.00 | 75 | 1011.8 |
| 20260507024503 | 61 | 330 | 0.0 | 0.0 | 0.00 | 0.00 | 0.00 | 75 | 1011.8 |
| 20260507024003 | 62 | 330 | 0.0 | 0.0 | 0.00 | 0.00 | 0.00 | 75 | 1011.8 |
| 20260507023502 | 62 | 330 | 0.0 | 0.0 | 0.00 | 0.00 | 0.00 | 75 | 1011.6 |
| 20260507023002 | 62 | 330 | 0.0 | 0.0 | 0.00 | 0.00 | 0.00 | 75 | 1011.6 |
| 20260507022502 | 62 | 330 | 0.0 | 0.0 | 0.00 | 0.00 | 0.00 | 75 | 1011.7 |
| 20260507022002 | 62 | 330 | 0.0 | 0.0 | 0.00 | 0.00 | 0.00 | 75 | 1011.8 |
| 20260507021501 | 62 | 330 | 0.0 | 0.0 | 0.00 | 0.00 | 0.00 | 75 | 1011.7 |
| 20260507021218 | 62 | 330 | 0.0 | 0.0 | 0.00 | 0.00 | 0.00 | 75 | 1011.8 |
| 20260507021001 | 62 | 330 | 0.0 | 0.0 | 0.00 | 0.00 | 0.00 | 75 | 1011.8 |
| 20260507020501 | 62 | 330 | 0.0 | 0.0 | 0.00 | 0.00 | 0.00 | 75 | 1011.8 |
| 20260507020001 | 62 | 330 | 0.0 | 0.0 | 0.00 | 0.00 | 0.00 | 75 | 1011.8 |
| 20260507015501 | 62 | 330 | 0.0 | 0.0 | 0.00 | 0.00 | 0.00 | 75 | 1011.7 |
| 20260507015000 | 62 | 330 | 0.0 | 0.0 | 0.00 | 0.00 | 0.00 | 75 | 1011.7 |
| 20260507014501 | 62 | 330 | 0.0 | 0.0 | 0.00 | 0.00 | 0.00 | 75 | 1011.7 |
| 20260507014000 | 63 | 330 | 0.0 | 0.0 | 0.00 | 0.00 | 0.00 | 75 | 1011.7 |
| 20260507013500 | 63 | 330 | 0.0 | 0.0 | 0.00 | 0.00 | 0.00 | 75 | 1011.7 |
| 20260507012959 | 63 | 330 | 0.0 | 0.0 | 0.00 | 0.00 | 0.00 | 75 | 1011.7 |
| 20260507012459 | 63 | 329 | 0.0 | 0.0 | 0.00 | 0.00 | 0.00 | 75 | 1011.7 |
| 20260507011959 | 63 | 329 | 0.0 | 0.0 | 0.00 | 0.00 | 0.00 | 75 | 1011.7 |
| 20260507011459 | 63 | 329 | 0.0 | 0.0 | 0.00 | 0.00 | 0.00 | 75 | 1011.7 |
| 20260507010959 | 63 | 329 | 0.0 | 0.0 | 0.00 | 0.00 | 0.00 | 74 | 1011.7 |
| 20260507010458 | 63 | 329 | 0.0 | 0.0 | 0.00 | 0.00 | 0.00 | 74 | 1011.7 |
| 20260507005958 | 64 | 328 | 0.0 | 0.0 | 0.00 | 0.00 | 0.00 | 74 | 1011.8 |
| 20260507005458 | 64 | 325 | 0.0 | 0.0 | 0.00 | 0.00 | 0.00 | 74 | 1011.7 |
| 20260507004958 | 64 | 33 | 0.0 | 0.0 | 0.00 | 0.00 | 0.00 | 74 | 1011.8 |
| 20260507004457 | 64 | 33 | 0.0 | 0.0 | 0.00 | 0.00 | 0.00 | 73 | 1011.8 |
| 20260507003957 | 64 | 33 | 0.0 | 0.0 | 0.00 | 0.00 | 0.00 | 73 | 1011.8 |
| 20260507003457 | 64 | 33 | 0.0 | 0.0 | 0.00 | 0.00 | 0.00 | 73 | 1011.7 |
| 20260507002957 | 64 | 280 | 0.0 | 0.0 | 0.00 | 0.00 | 0.00 | 72 | 1011.8 |
| 20260507002456 | 64 | 281 | 0.0 | 0.0 | 0.00 | 0.00 | 0.00 | 71 | 1011.8 |
| 20260507001956 | 64 | 280 | 0.0 | 0.0 | 0.00 | 0.00 | 0.00 | 71 | 1011.8 |
| 20260507001456 | 65 | 280 | 0.0 | 0.0 | 0.00 | 0.00 | 0.00 | 71 | 1011.8 |
| 20260507000956 | 65 | 280 | 0.0 | 0.0 | 0.00 | 0.00 | 0.00 | 70 | 1011.9 |
| 20260507000455 | 65 | 281 | 0.0 | 0.0 | 0.00 | 0.00 | 0.00 | 70 | 1011.9 |
| 20260506235955 | 66 | 281 | 0.0 | 0.0 | 0.00 | 0.00 | 0.00 | 69 | 1011.9 |
| 20260506235455 | 66 | 280 | 0.0 | 0.0 | 0.00 | 0.00 | 0.00 | 68 | 1011.9 |
| 20260506234955 | 66 | 237 | 0.0 | 0.0 | 0.00 | 0.00 | 0.00 | 68 | 1011.8 |
| 20260506234455 | 66 | 237 | 0.0 | 0.0 | 0.00 | 0.00 | 0.00 | 67 | 1011.7 |
| 20260506233954 | 66 | 144 | 0.0 | 0.0 | 0.00 | 0.00 | 0.00 | 67 | 1011.7 |
| 20260506233454 | 66 | 143 | 0.0 | 0.0 | 0.00 | 0.00 | 0.00 | 67 | 1011.7 |
| 20260506232954 | 66 | 187 | 0.0 | 0.0 | 0.00 | 0.00 | 0.00 | 67 | 1011.7 |
| 20260506232454 | 66 | 223 | 3.0 | 0.0 | 0.00 | 0.00 | 0.00 | 66 | 1011.7 |
| 20260506231953 | 67 | 245 | 0.0 | 0.0 | 0.00 | 0.00 | 0.00 | 65 | 1011.7 |
| 20260506230953 | 67 | 166 | 0.0 | 0.0 | 0.00 | 0.00 | 0.00 | 64 | 1011.5 |
| 20260506230453 | 67 | 184 | 2.0 | 0.0 | 0.00 | 0.00 | 0.00 | 64 | 1011.5 |
| 20260506225952 | 67 | 139 | 6.0 | 0.0 | 0.00 | 0.00 | 0.00 | 64 | 1011.6 |
| 20260506225452 | 67 | 187 | 7.0 | 0.0 | 0.00 | 0.00 | 0.00 | 65 | 1011.5 |
| 20260506224952 | 67 | 133 | 2.0 | 0.0 | 0.00 | 0.00 | 0.00 | 65 | 1011.5 |
| 20260506224452 | 67 | 157 | 2.0 | 0.0 | 0.00 | 0.00 | 0.00 | 66 | 1011.5 |
| 20260506223952 | 66 | 150 | 3.0 | 0.0 | 0.00 | 0.00 | 0.00 | 66 | 1011.5 |
| 20260506223451 | 66 | 155 | 2.0 | 0.0 | 0.00 | 0.00 | 0.00 | 67 | 1011.4 |
| 20260506222951 | 66 | 140 | 5.0 | 0.0 | 0.00 | 0.00 | 0.00 | 68 | 1011.5 |
| 20260506222451 | 66 | 152 | 5.0 | 0.0 | 0.00 | 0.00 | 0.00 | 69 | 1011.6 |
| 20260506221951 | 66 | 141 | 2.0 | 0.0 | 0.00 | 0.00 | 0.00 | 70 | 1011.6 |
| 20260506221451 | 65 | 145 | 3.0 | 0.0 | 0.00 | 0.00 | 0.00 | 70 | 1011.7 |
| 20260506220950 | 65 | 150 | 0.0 | 0.0 | 0.00 | 0.00 | 0.00 | 71 | 1011.7 |
| 20260506220450 | 65 | 139 | 0.0 | 0.0 | 0.00 | 0.00 | 0.00 | 71 | 1011.7 |
| 20260506215950 | 65 | 139 | 0.0 | 0.0 | 0.00 | 0.00 | 0.00 | 71 | 1011.7 |
| 20260506215450 | 65 | 139 | 0.0 | 0.0 | 0.00 | 0.00 | 0.00 | 71 | 1011.8 |
| 20260506214949 | 65 | 139 | 0.0 | 0.0 | 0.00 | 0.00 | 0.00 | 71 | 1011.7 |
| 20260506214449 | 65 | 143 | 0.0 | 0.0 | 0.00 | 0.00 | 0.00 | 71 | 1011.8 |
| 20260506213949 | 65 | 143 | 0.0 | 0.0 | 0.00 | 0.00 | 0.00 | 71 | 1011.9 |
| 20260506213449 | 65 | 129 | 0.0 | 0.0 | 0.00 | 0.00 | 0.00 | 72 | 1011.8 |
| 20260506212948 | 65 | 109 | 0.0 | 0.0 | 0.00 | 0.00 | 0.00 | 72 | 1011.8 |
| 20260506212448 | 65 | 104 | 0.0 | 0.0 | 0.00 | 0.00 | 0.00 | 73 | 1011.7 |
| 20260506211948 | 65 | 92 | 0.0 | 0.0 | 0.00 | 0.00 | 0.00 | 73 | 1011.7 |
| 20260506211448 | 65 | 46 | 0.0 | 0.0 | 0.00 | 0.00 | 0.00 | 73 | 1011.8 |
| 20260506210948 | 65 | 46 | 0.0 | 0.0 | 0.00 | 0.00 | 0.00 | 73 | 1011.8 |
| 20260506210447 | 65 | 45 | 0.0 | 0.0 | 0.00 | 0.00 | 0.00 | 73 | 1011.8 |
| 20260506205947 | 65 | 46 | 0.0 | 0.0 | 0.00 | 0.00 | 0.00 | 73 | 1011.8 |
| 20260506205447 | 65 | 46 | 0.0 | 0.0 | 0.00 | 0.00 | 0.00 | 73 | 1011.8 |
| 20260506204947 | 65 | 45 | 0.0 | 0.0 | 0.00 | 0.00 | 0.00 | 73 | 1011.8 |
| 20260506204446 | 65 | 45 | 0.0 | 0.0 | 0.00 | 0.00 | 0.00 | 73 | 1011.8 |
| 20260506203946 | 65 | 45 | 0.0 | 0.0 | 0.00 | 0.00 | 0.00 | 73 | 1011.7 |
| 20260506202946 | 65 | 45 | 0.0 | 0.0 | 0.00 | 0.00 | 0.00 | 73 | 1011.7 |
| 20260506202445 | 65 | 33 | 0.0 | 0.0 | 0.00 | 0.00 | 0.00 | 73 | 1011.5 |
| 20260506201945 | 65 | 354 | 0.0 | 0.0 | 0.00 | 0.00 | 0.00 | 73 | 1011.5 |
| 20260506201445 | 65 | 346 | 0.0 | 0.0 | 0.00 | 0.00 | 0.00 | 73 | 1011.5 |
| 20260506200945 | 65 | 346 | 0.0 | 0.0 | 0.00 | 0.00 | 0.00 | 73 | 1011.5 |
| 20260506200445 | 65 | 346 | 0.0 | 0.0 | 0.00 | 0.00 | 0.00 | 73 | 1011.6 |
| 20260506195944 | 65 | 346 | 0.0 | 0.0 | 0.00 | 0.00 | 0.00 | 73 | 1011.6 |
| 20260506195444 | 65 | 346 | 0.0 | 0.0 | 0.00 | 0.00 | 0.00 | 73 | 1011.5 |
| 20260506194944 | 65 | 343 | 0.0 | 0.0 | 0.00 | 0.00 | 0.00 | 72 | 1011.5 |
| 20260506194444 | 66 | 341 | 0.0 | 0.0 | 0.00 | 0.00 | 0.00 | 72 | 1011.4 |
| 20260506193943 | 66 | 343 | 0.0 | 0.0 | 0.00 | 0.00 | 0.00 | 72 | 1011.4 |
| 20260506193443 | 66 | 343 | 0.0 | 0.0 | 0.00 | 0.00 | 0.00 | 72 | 1011.3 |
| 20260506192943 | 66 | 343 | 0.0 | 0.0 | 0.00 | 0.00 | 0.00 | 72 | 1011.3 |
| 20260506192443 | 66 | 343 | 0.0 | 0.0 | 0.00 | 0.00 | 0.00 | 72 | 1011.3 |
| 20260506191942 | 66 | 343 | 0.0 | 0.0 | 0.00 | 0.00 | 0.00 | 72 | 1011.1 |
| 20260506191442 | 66 | 339 | 0.0 | 0.0 | 0.00 | 0.00 | 0.00 | 71 | 1011.1 |
| 20260506190942 | 66 | 337 | 0.0 | 0.0 | 0.00 | 0.00 | 0.00 | 71 | 1011.0 |
| 20260506190442 | 66 | 339 | 0.0 | 0.0 | 0.00 | 0.00 | 0.00 | 71 | 1010.9 |
| 20260506185941 | 66 | 308 | 0.0 | 0.0 | 0.00 | 0.00 | 0.00 | 70 | 1010.8 |
| 20260506185441 | 66 | 291 | 0.0 | 0.0 | 0.00 | 0.00 | 0.00 | 70 | 1010.8 |
| 20260506184941 | 66 | 303 | 0.0 | 0.0 | 0.00 | 0.00 | 0.00 | 70 | 1010.7 |
| 20260506184441 | 66 | 282 | 0.0 | 0.0 | 0.00 | 0.00 | 0.00 | 70 | 1010.7 |
| 20260506183941 | 66 | 285 | 0.0 | 0.0 | 0.00 | 0.00 | 0.00 | 69 | 1010.6 |
| 20260506183440 | 66 | 284 | 5.0 | 0.0 | 0.00 | 0.00 | 0.00 | 69 | 1010.5 |
| 20260506182940 | 67 | 266 | 3.0 | 0.0 | 0.00 | 0.00 | 0.00 | 69 | 1010.4 |
| 20260506182440 | 68 | 252 | 0.0 | 0.0 | 0.00 | 0.00 | 0.00 | 67 | 1010.3 |
| 20260506181940 | 68 | 251 | 0.0 | 0.0 | 0.00 | 0.00 | 0.00 | 66 | 1010.2 |
| 20260506181439 | 69 | 254 | 0.0 | 0.0 | 0.00 | 0.00 | 0.00 | 65 | 1010.1 |
| 20260506180939 | 70 | 237 | 0.0 | 0.0 | 0.00 | 0.00 | 0.00 | 63 | 1010.1 |
| 20260506180439 | 70 | 148 | 0.0 | 0.0 | 0.00 | 0.00 | 0.00 | 62 | 1010.0 |
| 20260506175939 | 70 | 158 | 3.0 | 0.0 | 0.00 | 0.00 | 0.00 | 62 | 1009.8 |
| 20260506174938 | 70 | 135 | 3.0 | 0.0 | 0.00 | 0.00 | 0.00 | 61 | 1009.8 |
| 20260506174438 | 70 | 144 | 1.0 | 0.0 | 0.00 | 0.00 | 0.00 | 61 | 1009.8 |
| 20260506173938 | 70 | 148 | 4.0 | 0.0 | 0.00 | 0.00 | 0.00 | 61 | 1009.7 |
| 20260506173437 | 71 | 136 | 8.0 | 0.0 | 0.00 | 0.00 | 0.00 | 60 | 1009.7 |
| 20260506172937 | 71 | 144 | 2.0 | 0.0 | 0.00 | 0.00 | 0.00 | 60 | 1009.6 |
| 20260506172437 | 71 | 131 | 2.0 | 0.0 | 0.00 | 0.00 | 0.00 | 60 | 1009.6 |
| 20260506171937 | 71 | 149 | 4.0 | 0.0 | 0.00 | 0.00 | 0.00 | 59 | 1009.6 |
| 20260506171436 | 71 | 138 | 9.0 | 0.0 | 0.00 | 0.00 | 0.00 | 59 | 1009.5 |
| 20260506170936 | 71 | 135 | 10.0 | 0.0 | 0.00 | 0.00 | 0.00 | 59 | 1009.4 |
| 20260506170436 | 71 | 157 | 3.0 | 0.0 | 0.00 | 0.00 | 0.00 | 59 | 1009.4 |
| 20260506165936 | 71 | 148 | 3.0 | 0.0 | 0.00 | 0.00 | 0.00 | 58 | 1009.4 |
| 20260506165436 | 71 | 144 | 9.0 | 0.0 | 0.00 | 0.00 | 0.00 | 58 | 1009.4 |
| 20260506164935 | 72 | 129 | 8.0 | 0.0 | 0.00 | 0.00 | 0.00 | 57 | 1009.3 |
| 20260506164506 | 72 | 160 | 7.0 | 0.0 | 0.00 | 0.00 | 0.00 | 57 | 1009.4 |
| 20260506164435 | 72 | 160 | 7.0 | 0.0 | 0.00 | 0.00 | 0.00 | 57 | 1009.4 |
| 20260506163935 | 72 | 151 | 6.0 | 0.0 | 0.00 | 0.00 | 0.00 | 57 | 1009.5 |
| 20260506163435 | 72 | 145 | 8.0 | 0.0 | 0.00 | 0.00 | 0.00 | 56 | 1009.4 |
| 20260506162934 | 72 | 150 | 9.0 | 0.0 | 0.00 | 0.00 | 0.00 | 56 | 1009.5 |
| 20260506162434 | 73 | 136 | 9.0 | 0.0 | 0.00 | 0.00 | 0.00 | 56 | 1009.5 |
| 20260506161934 | 73 | 130 | 7.0 | 0.0 | 0.00 | 0.00 | 0.00 | 56 | 1009.5 |
| 20260506161434 | 73 | 138 | 10.0 | 0.0 | 0.00 | 0.00 | 0.00 | 56 | 1009.5 |
| 20260506160933 | 72 | 143 | 8.0 | 0.0 | 0.00 | 0.00 | 0.00 | 56 | 1009.6 |
| 20260506160433 | 73 | 147 | 5.0 | 0.0 | 0.00 | 0.00 | 0.00 | 56 | 1009.6 |
| 20260506155933 | 73 | 131 | 9.0 | 0.0 | 0.00 | 0.00 | 0.00 | 55 | 1009.5 |
| 20260506155433 | 73 | 133 | 8.0 | 0.0 | 0.00 | 0.00 | 0.00 | 56 | 1009.6 |
| 20260506154932 | 73 | 146 | 12.0 | 0.0 | 0.00 | 0.00 | 0.00 | 55 | 1009.6 |
| 20260506154432 | 73 | 116 | 8.0 | 0.0 | 0.00 | 0.00 | 0.00 | 55 | 1009.5 |
| 20260506153932 | 73 | 135 | 10.0 | 0.0 | 0.00 | 0.00 | 0.00 | 54 | 1009.5 |
| 20260506153432 | 74 | 139 | 12.0 | 0.0 | 0.00 | 0.00 | 0.00 | 53 | 1009.4 |
| 20260506152932 | 74 | 152 | 7.0 | 0.0 | 0.00 | 0.00 | 0.00 | 54 | 1009.4 |
| 20260506152431 | 74 | 162 | 7.0 | 0.0 | 0.00 | 0.00 | 0.00 | 56 | 1009.4 |
| 20260506151931 | 74 | 147 | 2.0 | 0.0 | 0.00 | 0.00 | 0.00 | 56 | 1009.3 |
| 20260506150931 | 73 | 148 | 5.0 | 0.0 | 0.00 | 0.00 | 0.00 | 57 | 1009.4 |
| 20260506150430 | 73 | 166 | 5.0 | 0.0 | 0.00 | 0.00 | 0.00 | 56 | 1009.4 |
| 20260506145930 | 73 | 145 | 3.0 | 0.0 | 0.00 | 0.00 | 0.00 | 56 | 1009.4 |
| 20260506145430 | 73 | 166 | 7.0 | 0.0 | 0.00 | 0.00 | 0.00 | 56 | 1009.3 |
| 20260506144930 | 73 | 142 | 6.0 | 0.0 | 0.00 | 0.00 | 0.00 | 57 | 1009.3 |
| 20260506144430 | 73 | 131 | 8.0 | 0.0 | 0.00 | 0.00 | 0.00 | 56 | 1009.3 |
| 20260506143929 | 73 | 142 | 9.0 | 0.0 | 0.00 | 0.00 | 0.00 | 56 | 1009.3 |
| 20260506143429 | 73 | 145 | 10.0 | 0.0 | 0.00 | 0.00 | 0.00 | 55 | 1009.2 |
| 20260506142929 | 73 | 150 | 12.0 | 0.0 | 0.00 | 0.36 | 0.00 | 54 | 1009.3 |
| 20260506142429 | 74 | 153 | 10.0 | 0.0 | 0.00 | 0.36 | 0.00 | 54 | 1009.3 |
| 20260506141928 | 74 | 153 | 4.0 | 0.0 | 0.00 | 0.36 | 0.00 | 55 | 1009.2 |
| 20260506141428 | 73 | 149 | 8.0 | 0.0 | 0.00 | 0.36 | 0.00 | 54 | 1009.2 |
| 20260506140928 | 73 | 151 | 8.0 | 0.0 | 0.00 | 0.36 | 0.00 | 55 | 1009.4 |
| 20260506140428 | 73 | 176 | 9.0 | 0.0 | 0.00 | 0.36 | 0.00 | 54 | 1009.6 |
| 20260506135928 | 73 | 165 | 12.0 | 0.0 | 0.00 | 0.36 | 0.00 | 53 | 1009.6 |
| 20260506135427 | 73 | 147 | 14.0 | 0.0 | 0.00 | 0.36 | 0.00 | 54 | 1009.6 |
| 20260506134927 | 73 | 146 | 13.0 | 0.0 | 0.00 | 0.36 | 0.00 | 54 | 1009.8 |
| 20260506134427 | 73 | 145 | 2.0 | 0.0 | 0.00 | 0.36 | 0.00 | 55 | 1009.8 |
| 20260506133926 | 73 | 178 | 4.0 | 0.0 | 0.00 | 0.36 | 0.00 | 55 | 1009.8 |
| 20260506133426 | 73 | 144 | 8.0 | 0.0 | 0.00 | 0.36 | 0.00 | 54 | 1009.9 |
| 20260506132926 | 73 | 155 | 9.0 | 0.0 | 0.00 | 0.36 | 0.00 | 54 | 1010.0 |
| 20260506132426 | 73 | 149 | 7.0 | 0.0 | 0.00 | 0.36 | 0.00 | 53 | 1010.1 |
| 20260506131926 | 73 | 142 | 6.0 | 0.0 | 0.00 | 0.36 | 0.00 | 53 | 1010.2 |
| 20260506131425 | 73 | 147 | 6.0 | 0.0 | 0.00 | 0.36 | 0.00 | 52 | 1010.2 |
| 20260506130925 | 73 | 148 | 2.0 | 0.0 | 0.00 | 0.36 | 0.00 | 52 | 1010.3 |
| 20260506130425 | 72 | 141 | 9.0 | 0.0 | 0.00 | 0.36 | 0.00 | 53 | 1010.3 |
| 20260506125925 | 72 | 145 | 5.0 | 0.0 | 0.00 | 0.36 | 0.00 | 53 | 1010.4 |
| 20260506125424 | 72 | 147 | 13.0 | 0.0 | 0.00 | 0.36 | 0.00 | 53 | 1010.4 |
| 20260506124924 | 72 | 138 | 19.0 | 0.0 | 0.00 | 0.36 | 0.00 | 54 | 1010.5 |
| 20260506124424 | 72 | 145 | 10.0 | 0.0 | 0.00 | 0.36 | 0.00 | 54 | 1010.6 |
| 20260506123924 | 72 | 168 | 11.0 | 0.0 | 0.00 | 0.36 | 0.00 | 53 | 1010.7 |
| 20260506122922 | 72 | 160 | 9.0 | 0.0 | 0.00 | 0.36 | 0.00 | 55 | 1010.5 |
| 20260506122422 | 72 | 138 | 10.0 | 0.0 | 0.00 | 0.36 | 0.00 | 56 | 1010.5 |
| 20260506121922 | 72 | 149 | 8.0 | 0.0 | 0.00 | 0.36 | 0.00 | 55 | 1010.5 |
| 20260506121422 | 72 | 149 | 8.0 | 0.0 | 0.00 | 0.36 | 0.00 | 55 | 1010.5 |
| 20260506120921 | 72 | 152 | 8.0 | 0.0 | 0.00 | 0.36 | 0.00 | 55 | 1010.6 |
| 20260506120421 | 72 | 168 | 12.0 | 0.0 | 0.00 | 0.36 | 0.00 | 55 | 1010.6 |
| 20260506120005 | 72 | 154 | 0.0 | 0.0 | 0.00 | 0.36 | 0.00 | 55 | 1010.6 |
| 20260506115921 | 72 | 154 | 0.0 | 0.0 | 0.00 | 0.36 | 0.00 | 55 | 1010.6 |
| 20260506115421 | 72 | 147 | 3.0 | 0.0 | 0.00 | 0.36 | 0.00 | 56 | 1010.5 |
| 20260506114920 | 72 | 137 | 5.0 | 0.0 | 0.00 | 0.36 | 0.00 | 58 | 1010.6 |
| 20260506114420 | 72 | 142 | 9.0 | 0.0 | 0.00 | 0.36 | 0.00 | 57 | 1010.6 |